Fargo, ND

6:18 AM CST on January 23, 2018 (GMT -0600)
Hector International

Weather History for KFAR - March, 2014

Change the Weather History Date:

Wednesday, March 5, 2014

  Actual Average Record
Temperature  
Mean Temperature 11 °F 22 °F  
Max Temperature 22 °F 30 °F 67 °F (2000)
Min Temperature -1 °F 14 °F -22 °F (1997)
Degree Days  
Heating Degree Days 54 43  
Month to date heating degree days 326 219  
Since 1 July heating degree days 7603 6897  
Cooling Degree Days 0 0  
Month to date cooling degree days 0 0  
Year to date cooling degree days 0 0  
Moisture  
Dew Point 8 °F    
Average Humidity 71    
Maximum Humidity 83    
Minimum Humidity 59    
Precipitation  
Precipitation 0.00 in 0.04 in 0.77 in (1992)
Month to date precipitation 0.07 0.19  
Year to date precipitation 0.95 1.50  
Snow  
Snow 0.00 in 0.40 in 4.50 in (1896)
Month to date snowfall 1.8 1.8  
Since 1 July snowfall 29.4 39.8  
Snow Depth 13.00 in    
Sea Level Pressure  
Sea Level Pressure 30.32 in    
Wind  
Wind Speed 15 mph (SSE)    
Max Wind Speed 30 mph    
Max Gust Speed 40 mph    
Visibility 8 miles    
Events      
T = Trace of Precipitation, MM = Missing Value Source: NWS Daily Summary

Daily Weather History Graph

Daily Weather History Graph

Search for Another Location

Airport or City:

Trip Planner

Search our weather history database for the weather conditions in past years. The results will help you decide how hot, cold, wet, or windy it might be!

Date:

Astronomy

Mar. 05, 2014 Rise Set
Actual Time 6:59 AM CST 6:18 PM CST
Civil Twilight 6:29 AM CST 6:49 PM CST
Nautical Twilight 5:53 AM CST 7:24 PM CST
Astronomical Twilight 5:18 AM CST 7:59 PM CST
Moon 9:06 AM CST (3/5) 11:49 PM CST (3/5)
Length of Visible Light 12h 20m
Length of Day
11h 19m
Waxing Crescent, 23% of the Moon is Illuminated
Mar 5
Waxing Crescent
Mar 8
First Quarter
Mar 16
Full
Mar 23
Last Quarter
Mar 30
New

Hourly Weather History & Observations

Time (CST) Temp. Windchill Dew Point Humidity Pressure Visibility Wind Dir Wind Speed Gust Speed Precip Events Conditions
12:53 AM 3.0 °F -10.5 °F -2.9 °F 76% 30.40 in 10.0 mi North 8.1 mph - N/A   Partly Cloudy
1:53 AM 3.0 °F - -2.9 °F 76% 30.40 in 10.0 mi Calm Calm - N/A   Overcast
2:53 AM 1.0 °F -6.7 °F -5.1 °F 75% 30.38 in 10.0 mi NE 3.5 mph - N/A   Partly Cloudy
3:53 AM 3.9 °F - -2.9 °F 73% 30.40 in 10.0 mi Calm Calm - N/A   Overcast
4:53 AM 5.0 °F -2.1 °F -0.9 °F 76% 30.42 in 10.0 mi South 3.5 mph - N/A   Overcast
5:53 AM 6.1 °F - -0.0 °F 76% 30.43 in 10.0 mi Calm Calm - N/A   Overcast
6:53 AM 10.0 °F 3.6 °F 1.9 °F 70% 30.43 in 10.0 mi East 3.5 mph - N/A   Overcast
7:53 AM 12.0 °F 1.5 °F 3.0 °F 67% 30.44 in 10.0 mi SE 6.9 mph - N/A   Overcast
8:53 AM 15.1 °F 1.8 °F 3.9 °F 61% 30.43 in 10.0 mi SSE 11.5 mph - N/A   Overcast
9:53 AM 16.0 °F 2.9 °F 5.0 °F 62% 30.42 in 10.0 mi South 11.5 mph - N/A   Scattered Clouds
10:53 AM 18.0 °F 4.8 °F 7.0 °F 62% 30.42 in 10.0 mi SSE 12.7 mph 21.9 mph N/A   Mostly Cloudy
11:53 AM 18.0 °F 3.1 °F 9.0 °F 68% 30.39 in 10.0 mi South 16.1 mph - N/A   Overcast
12:53 PM 19.0 °F 3.2 °F 10.9 °F 71% 30.37 in 9.0 mi SSE 19.6 mph 26.5 mph N/A   Overcast
1:34 PM 19.4 °F 3.6 °F 12.2 °F 74% 30.28 in 5.0 mi SSE 19.6 mph 28.8 mph 0.01 in   Haze
1:53 PM 21.0 °F 4.6 °F 14.0 °F 74% 30.34 in 7.0 mi South 23.0 mph 28.8 mph 0.01 in   Overcast
2:53 PM 21.0 °F 4.3 °F 14.0 °F 74% 30.30 in 6.0 mi South 24.2 mph 33.4 mph N/A   Haze
3:32 PM 21.2 °F 6.4 °F 15.8 °F 80% 30.22 in 5.0 mi SSE 18.4 mph 32.2 mph N/A   Haze
3:53 PM 21.9 °F 6.5 °F 15.1 °F 75% 30.28 in 6.0 mi SSE 20.7 mph 32.2 mph N/A   Haze
4:53 PM 21.9 °F 6.9 °F 15.1 °F 75% 30.24 in 6.0 mi SSE 19.6 mph 32.2 mph N/A   Haze
5:53 PM 21.0 °F 3.6 °F 15.1 °F 78% 30.22 in 4.0 mi SSE 26.5 mph 35.7 mph N/A   Haze
6:53 PM 21.0 °F 4.6 °F 15.1 °F 78% 30.23 in 8.0 mi South 23.0 mph 33.4 mph N/A   Overcast
7:53 PM 19.9 °F 3.9 °F 14.0 °F 78% 30.22 in 9.0 mi South 20.7 mph 31.1 mph 0.00 in   Overcast
8:53 PM 18.0 °F 0.2 °F 12.0 °F 78% 30.19 in 7.0 mi South 24.2 mph 32.2 mph N/A   Scattered Clouds
9:53 PM 17.1 °F -1.7 °F 10.9 °F 77% 30.18 in 7.0 mi South 26.5 mph 35.7 mph N/A   Clear
10:53 PM 16.0 °F -2.8 °F 10.9 °F 81% 30.15 in 6.0 mi SSE 25.3 mph 36.8 mph 0.02 in   Haze
11:53 PM 16.0 °F -2.8 °F 10.9 °F 81% 30.12 in 5.0 mi SSE 25.3 mph 35.7 mph N/A   Haze